Location: Unspecified
(0.0000°N, 0.0000°E)
Time: 04:52:53
(UTC+00:00)

A-11 Canister half - Pass Details

Date: 24 April 2026
Orbit: 1523 x 1685 km, 47.3° (Epoch: 13 May)

Event Time Altitude Azimuth Distance (km) Brightness Sun altitude
Rises 18:52:29 0° 212° (SSW) 4,699 11.8 -13.2°
Reaches altitude 10° 18:55:34 10° 208° (SSW) 3,731 11.2 -14.0°
Maximum altitude 19:04:53 62° 129° (SE) 1,746 9.0 -16.2°
Drops below altitude 10° 19:14:29 10° 51° (NE) 3,846 10.7 -18.6°
Sets 19:17:41 0° 47° (NE) 4,852 11.3 -19.4°
